Regional Weather Roundup
Issued by NWS

Home | Current Version | Previous Version | Graphics & Text | Print | Product List | Glossary On
Versions: 1 2 3 4 5 6 7 8 9 10 11 12 13 14 15 16 17 18 19 20 21 22 23 24 25 26 27
000
ASUS45 KSLC 291210
RWRUT

UTAH REGIONAL WEATHER ROUNDUP
NATIONAL WEATHER SERVICE SALT LAKE CITY UT
600 AM MDT SAT APR 29 2017

UTZ001>011-023>025-291300-

NORTHERN UTAH

CITY           SKY/WX    TMP DP  RH WIND       PRES   REMARKS
BRIGHAM CITY   CLEAR     39  22  50 E16G33    30.15R WCI  30
HILL AFB       PTCLDY    37  20  50 E22G29    30.11R WCI  27
LOGAN          CLEAR     38  23  55 E9        30.16R WCI  31
OGDEN          MOCLDY    38  22  52 N22G35    30.10S WCI  27
SALT LAKE CITY MOCLDY    40  25  55 CALM      30.11R
TOOELE VALLEY  CLEAR     32  28  86 N9        30.11S WCI  24
WENDOVER       CLEAR     42  23  46 NW14      30.14R
HEBER CITY     PTCLDY    32  19  59 N12G18    30.08R WCI  23
WEST JORDAN    MOCLDY    40  32  71 N10G25    30.12R WCI  34

$$

UTZ011>015-024>027-291300-

CENTRAL/NORTHEAST UTAH

CITY           SKY/WX    TMP DP  RH WIND       PRES   REMARKS
PROVO AIRPORT  CLEAR     31  28  89 E3        30.08R
MOAB/CANYONLAN CLOUDY    41  28  60 N7        29.91R
DELTA          CLEAR     32  30  93 E5        30.07S WCI  27
PRICE          CLEAR     29  20  69 N8        29.98R WCI  21
RICHFIELD      MOCLDY    34  34 100 CALM      30.07R
ROOSEVELT      CLEAR     32  28  86 W6        30.06R WCI  26
VERNAL         CLOUDY    35  19  52 NE12      30.05R WCI  27

$$

UTZ013>016-019>022-027-291300-

SOUTHERN UTAH

CITY           SKY/WX    TMP DP  RH WIND       PRES   REMARKS
BRYCE CANYON   MOCLDY    28  23  81 NW20G30   29.97R WCI  15
CEDAR CITY     CLOUDY    38  27  64 N12       30.03R WCI  30
MILFORD        MOCLDY    40  28  62 N18       30.04R WCI  31
ST GEORGE      MOSUNNY   44  25  47 SE12      29.99R
HANKSVILLE     PTCLDY    43  21  42 N9        29.96R
KANAB          MOCLDY    36  21  55 S1        30.03R
BLANDING       CLOUDY    37  26  64 NW15      29.92F WCI  28

$$

REGIONAL REPORTS     COLORADO/ARIZONA

CITY           SKY/WX    TMP DP  RH WIND       PRES   REMARKS
CRAIG, CO      CLOUDY    32  18  56 E8        29.99R WCI  25
GRAND JUNCTION CLOUDY    39  32  76 CALM      29.91R
RIFLE, CO      CLOUDY    34  28  79 CALM      29.93R
MONTROSE, CO   CLOUDY    32  32 100 CALM      29.93R
CORTEZ, CO     CLEAR     25  24  96 NE7       29.85F WCI  17
COLORADO CITY    N/A     28  21  74 E3        30.01S
PAGE, AZ       MOCLDY    46  24  42 NW8       29.93R
GRAND CANYON   CLEAR     19  13  77 CALM      29.97R
KINGMAN, AZ    CLEAR     41  32  70 E8        30.00R
FLAGSTAFF, AZ  CLEAR     24  12  60 CALM      29.93R

$$

REGIONAL REPORTS    NEVADA/IDAHO/WYOMING

CITY           SKY/WX    TMP DP  RH WIND       PRES   REMARKS
LAS VEGAS, NV  CLEAR     57  17  21 NW15      30.03R
ELY, NY        CLEAR     29  20  69 N14       30.14R WCI  18
ELKO, NV       CLEAR     28  22  78 CALM      30.20R
POCATELLO, ID  CLEAR     28  25  88 NW7       30.18R WCI  21
BURLEY, ID     CLEAR     36  27  69 W9        30.17R WCI  29
FORT BRIDGER,  CLOUDY    21  21 100 N3        30.18R
EVANSTON, WY   CLOUDY    24  20  84 NE8       30.13R WCI  15
ROCK SPRINGS,  CLOUDY    27  19  72 NE15      30.12R WCI  15

$$




USA.gov is the U.S. government's official web portal to all federal, state and local government web resources and services.